Year,Month,Day,Hour,Minute,Value (Times are PST for temperature in C)
2011,08,21,00,00,18.90
2011,08,21,00,01,18.90
2011,08,21,00,02,18.90
2011,08,21,00,03,18.90
2011,08,21,00,04,18.90
2011,08,21,00,05,18.90
2011,08,21,00,06,18.90
2011,08,21,00,07,18.90
2011,08,21,00,08,18.90
2011,08,21,00,09,18.90
2011,08,21,00,10,18.90
2011,08,21,00,11,18.90
2011,08,21,00,12,18.90
2011,08,21,00,13,18.90
2011,08,21,00,14,18.90
2011,08,21,00,15,18.90
2011,08,21,00,16,18.90
2011,08,21,00,17,18.90
2011,08,21,00,18,18.90
2011,08,21,00,19,18.90
2011,08,21,00,20,18.90
2011,08,21,00,21,18.90
2011,08,21,00,22,18.90
2011,08,21,00,23,18.90
2011,08,21,00,24,18.90
2011,08,21,00,25,18.80
2011,08,21,00,26,18.80
2011,08,21,00,27,18.80
2011,08,21,00,28,18.80
2011,08,21,00,29,18.90
2011,08,21,00,30,18.90
2011,08,21,00,31,18.80
2011,08,21,00,32,18.80
2011,08,21,00,33,18.80
2011,08,21,00,34,18.80
2011,08,21,00,35,18.80
2011,08,21,00,36,18.80
2011,08,21,00,37,18.80
2011,08,21,00,38,18.70
2011,08,21,00,39,18.70
2011,08,21,00,40,18.70
2011,08,21,00,41,18.70
2011,08,21,00,42,18.70
2011,08,21,00,43,18.70
2011,08,21,00,44,18.80
2011,08,21,00,45,18.80
2011,08,21,00,46,18.80
2011,08,21,00,47,18.80
2011,08,21,00,48,18.70
2011,08,21,00,49,18.70
2011,08,21,00,50,18.70
2011,08,21,00,51,18.70
2011,08,21,00,52,18.70
2011,08,21,00,53,18.70
2011,08,21,00,54,18.70
2011,08,21,00,55,18.60
2011,08,21,00,56,18.60
2011,08,21,00,57,18.60
2011,08,21,00,58,18.60
2011,08,21,00,59,18.50
2011,08,21,01,00,18.50
2011,08,21,01,01,18.50
2011,08,21,01,02,18.50
2011,08,21,01,03,18.50
2011,08,21,01,04,18.50
2011,08,21,01,05,18.50
2011,08,21,01,06,18.50
2011,08,21,01,07,18.50
2011,08,21,01,08,18.50
2011,08,21,01,09,18.50
2011,08,21,01,10,18.50
2011,08,21,01,11,18.50
2011,08,21,01,12,18.50
2011,08,21,01,13,18.50
2011,08,21,01,14,18.50
2011,08,21,01,15,18.50
2011,08,21,01,16,18.50
2011,08,21,01,17,18.50
2011,08,21,01,18,18.50
2011,08,21,01,19,18.50
2011,08,21,01,20,18.50
2011,08,21,01,21,18.50
2011,08,21,01,22,18.50
2011,08,21,01,23,18.40
2011,08,21,01,24,18.40
2011,08,21,01,25,18.40
2011,08,21,01,26,18.40
2011,08,21,01,27,18.40
2011,08,21,01,28,18.40
2011,08,21,01,29,18.40
2011,08,21,01,30,18.40
2011,08,21,01,31,18.30
2011,08,21,01,32,18.30
2011,08,21,01,33,18.30
2011,08,21,01,34,18.30
2011,08,21,01,35,18.30
2011,08,21,01,36,18.30
2011,08,21,01,37,18.30
2011,08,21,01,38,18.30
2011,08,21,01,39,18.30
2011,08,21,01,40,18.30
2011,08,21,01,41,18.20
2011,08,21,01,42,18.20
2011,08,21,01,43,18.20
2011,08,21,01,44,18.20
2011,08,21,01,45,18.20
2011,08,21,01,46,18.20
2011,08,21,01,47,18.20
2011,08,21,01,48,18.20
2011,08,21,01,49,18.20
2011,08,21,01,50,18.20
2011,08,21,01,51,18.20
2011,08,21,01,52,18.20
2011,08,21,01,53,18.20
2011,08,21,01,54,18.20
2011,08,21,01,55,18.20
2011,08,21,01,56,18.20
2011,08,21,01,57,18.10
2011,08,21,01,58,18.10
2011,08,21,01,59,18.10
2011,08,21,02,00,18.10
2011,08,21,02,01,18.20
2011,08,21,02,02,18.20
2011,08,21,02,03,18.20
2011,08,21,02,04,18.10
2011,08,21,02,05,18.10
2011,08,21,02,06,18.10
2011,08,21,02,07,18.10
2011,08,21,02,08,18.10
2011,08,21,02,09,18.10
2011,08,21,02,10,18.10
2011,08,21,02,11,18.10
2011,08,21,02,12,18.00
2011,08,21,02,13,17.90
2011,08,21,02,14,17.90
2011,08,21,02,15,17.90
2011,08,21,02,16,18.00
2011,08,21,02,17,18.10
2011,08,21,02,18,18.10
2011,08,21,02,19,18.10
2011,08,21,02,20,18.10
2011,08,21,02,21,18.10
2011,08,21,02,22,18.10
2011,08,21,02,23,18.10
2011,08,21,02,24,18.10
2011,08,21,02,25,18.10
2011,08,21,02,26,18.10
2011,08,21,02,27,18.10
2011,08,21,02,28,18.10
2011,08,21,02,29,18.10
2011,08,21,02,30,18.10
2011,08,21,02,31,18.10
2011,08,21,02,32,18.20
2011,08,21,02,33,18.20
2011,08,21,02,34,18.20
2011,08,21,02,35,18.20
2011,08,21,02,36,18.20
2011,08,21,02,37,18.20
2011,08,21,02,38,18.20
2011,08,21,02,39,18.20
2011,08,21,02,40,18.20
2011,08,21,02,41,18.20
2011,08,21,02,42,18.30
2011,08,21,02,43,18.30
2011,08,21,02,44,18.30
2011,08,21,02,45,18.30
2011,08,21,02,46,18.30
2011,08,21,02,47,18.30
2011,08,21,02,48,18.30
2011,08,21,02,49,18.30
2011,08,21,02,50,18.30
2011,08,21,02,51,18.30
2011,08,21,02,52,18.30
2011,08,21,02,53,18.30
2011,08,21,02,54,18.30
2011,08,21,02,55,18.30
2011,08,21,02,56,18.30
2011,08,21,02,57,18.30
2011,08,21,02,58,18.30
2011,08,21,02,59,18.30
2011,08,21,03,00,18.30
2011,08,21,03,01,18.30
2011,08,21,03,02,18.30
2011,08,21,03,03,18.30
2011,08,21,03,04,18.20
2011,08,21,03,05,18.20
2011,08,21,03,06,18.20
2011,08,21,03,07,18.20
2011,08,21,03,08,18.20
2011,08,21,03,09,18.20
2011,08,21,03,10,18.10
2011,08,21,03,11,18.10
2011,08,21,03,12,18.10
2011,08,21,03,13,17.90
2011,08,21,03,14,17.90
2011,08,21,03,15,17.90
2011,08,21,03,16,17.90
2011,08,21,03,17,17.90
2011,08,21,03,18,17.90
2011,08,21,03,19,17.90
2011,08,21,03,20,17.90
2011,08,21,03,21,17.90
2011,08,21,03,22,17.90
2011,08,21,03,23,17.90
2011,08,21,03,24,17.90
2011,08,21,03,25,17.90
2011,08,21,03,26,17.80
2011,08,21,03,27,17.80
2011,08,21,03,28,17.80
2011,08,21,03,29,17.80
2011,08,21,03,30,17.80
2011,08,21,03,31,17.80
2011,08,21,03,32,17.80
2011,08,21,03,33,17.80
2011,08,21,03,34,17.80
2011,08,21,03,35,17.80
2011,08,21,03,36,17.80
2011,08,21,03,37,17.80
2011,08,21,03,38,17.80
2011,08,21,03,39,17.80
2011,08,21,03,40,17.80
2011,08,21,03,41,17.80
2011,08,21,03,42,17.80
2011,08,21,03,43,17.80
2011,08,21,03,44,17.70
2011,08,21,03,45,17.70
2011,08,21,03,46,17.70
2011,08,21,03,47,17.70
2011,08,21,03,48,17.70
2011,08,21,03,49,17.70
2011,08,21,03,50,17.70
2011,08,21,03,51,17.70
2011,08,21,03,52,17.70
2011,08,21,03,53,17.70
2011,08,21,03,54,17.70
2011,08,21,03,55,17.70
2011,08,21,03,56,17.70
2011,08,21,03,57,17.60
2011,08,21,03,58,17.60
2011,08,21,03,59,17.60
2011,08,21,04,00,17.60
2011,08,21,04,01,17.60
2011,08,21,04,02,17.50
2011,08,21,04,03,17.50
2011,08,21,04,04,17.50
2011,08,21,04,05,17.50
2011,08,21,04,06,17.40
2011,08,21,04,07,17.40
2011,08,21,04,08,17.40
2011,08,21,04,09,17.40
2011,08,21,04,10,17.30
2011,08,21,04,11,17.30
2011,08,21,04,12,17.30
2011,08,21,04,13,17.30
2011,08,21,04,14,17.30
2011,08,21,04,15,17.30
2011,08,21,04,16,17.30
2011,08,21,04,17,17.20
2011,08,21,04,18,17.20
2011,08,21,04,19,17.20
2011,08,21,04,20,17.10
2011,08,21,04,21,17.10
2011,08,21,04,22,17.10
2011,08,21,04,23,17.10
2011,08,21,04,24,17.10
2011,08,21,04,25,17.10
2011,08,21,04,26,17.10
2011,08,21,04,27,17.00
2011,08,21,04,28,17.00
2011,08,21,04,29,17.00
2011,08,21,04,30,17.00
2011,08,21,04,31,17.00
2011,08,21,04,32,17.00
2011,08,21,04,33,17.00
2011,08,21,04,34,17.00
2011,08,21,04,35,17.00
2011,08,21,04,36,17.00
2011,08,21,04,37,17.00
2011,08,21,04,38,16.90
2011,08,21,04,39,16.90
2011,08,21,04,40,16.90
2011,08,21,04,41,16.90
2011,08,21,04,42,16.90
2011,08,21,04,43,16.80
2011,08,21,04,44,16.80
2011,08,21,04,45,16.90
2011,08,21,04,46,16.90
2011,08,21,04,47,16.90
2011,08,21,04,48,16.90
2011,08,21,04,49,16.90
2011,08,21,04,50,16.90
2011,08,21,04,51,16.90
2011,08,21,04,52,16.90
2011,08,21,04,53,16.90
2011,08,21,04,54,16.90
2011,08,21,04,55,16.90
2011,08,21,04,56,16.90
2011,08,21,04,57,16.90
2011,08,21,04,58,16.90
2011,08,21,04,59,16.90
2011,08,21,05,00,16.80
2011,08,21,05,01,16.80
2011,08,21,05,02,16.80
2011,08,21,05,03,16.80
2011,08,21,05,04,16.70
2011,08,21,05,05,16.70
2011,08,21,05,06,16.70
2011,08,21,05,07,16.70
2011,08,21,05,08,16.70
2011,08,21,05,09,16.70
2011,08,21,05,10,16.70
2011,08,21,05,11,16.60
2011,08,21,05,12,16.60
2011,08,21,05,13,16.60
2011,08,21,05,14,16.60
2011,08,21,05,15,16.60
2011,08,21,05,16,16.60
2011,08,21,05,17,16.60
2011,08,21,05,18,16.60
2011,08,21,05,19,16.60
2011,08,21,05,20,16.60
2011,08,21,05,21,16.60
2011,08,21,05,22,16.70
2011,08,21,05,23,16.70
2011,08,21,05,24,16.70
2011,08,21,05,25,16.70
2011,08,21,05,26,16.70
2011,08,21,05,27,16.70
2011,08,21,05,28,16.70
2011,08,21,05,29,16.70
2011,08,21,05,30,16.70
2011,08,21,05,31,16.70
2011,08,21,05,32,16.70
2011,08,21,05,33,16.70
2011,08,21,05,34,16.70
2011,08,21,05,35,16.70
2011,08,21,05,36,16.70
2011,08,21,05,37,16.70
2011,08,21,05,38,16.70
2011,08,21,05,39,16.60
2011,08,21,05,40,16.60
2011,08,21,05,41,16.60
2011,08,21,05,42,16.60
2011,08,21,05,43,16.60
2011,08,21,05,44,16.50
2011,08,21,05,45,16.40
2011,08,21,05,46,16.40
2011,08,21,05,47,16.40
2011,08,21,05,48,16.40
2011,08,21,05,49,16.40
2011,08,21,05,50,16.40
2011,08,21,05,51,16.40
2011,08,21,05,52,16.40
2011,08,21,05,53,16.40
2011,08,21,05,54,16.40
2011,08,21,05,55,16.30
2011,08,21,05,56,16.30
2011,08,21,05,57,16.30
2011,08,21,05,58,16.30
2011,08,21,05,59,16.30
2011,08,21,06,00,16.30
2011,08,21,06,01,16.20
2011,08,21,06,02,16.20
2011,08,21,06,03,16.20
2011,08,21,06,04,16.20
2011,08,21,06,05,16.20
2011,08,21,06,06,16.20
2011,08,21,06,07,16.20
2011,08,21,06,08,16.20
2011,08,21,06,09,16.30
2011,08,21,06,10,16.30
2011,08,21,06,11,16.30
2011,08,21,06,12,16.30
2011,08,21,06,13,16.30
2011,08,21,06,14,16.30
2011,08,21,06,15,16.40
2011,08,21,06,16,16.40
2011,08,21,06,17,16.40
2011,08,21,06,18,16.40
2011,08,21,06,19,16.50
2011,08,21,06,20,16.60
2011,08,21,06,21,16.60
2011,08,21,06,22,16.70
2011,08,21,06,23,16.70
2011,08,21,06,24,16.70
2011,08,21,06,25,16.70
2011,08,21,06,26,16.70
2011,08,21,06,27,16.70
2011,08,21,06,28,16.70
2011,08,21,06,29,16.70
2011,08,21,06,30,16.70
2011,08,21,06,31,16.80
2011,08,21,06,32,16.80
2011,08,21,06,33,16.80
2011,08,21,06,34,16.80
2011,08,21,06,35,16.90
2011,08,21,06,36,16.90
2011,08,21,06,37,16.90
2011,08,21,06,38,16.90
2011,08,21,06,39,17.00
2011,08,21,06,40,17.00
2011,08,21,06,41,17.00
2011,08,21,06,42,17.00
2011,08,21,06,43,17.00
2011,08,21,06,44,17.00
2011,08,21,06,45,17.00
2011,08,21,06,46,17.00
2011,08,21,06,47,17.00
2011,08,21,06,48,17.00
2011,08,21,06,49,16.90
2011,08,21,06,50,16.90
2011,08,21,06,51,16.90
2011,08,21,06,52,16.90
2011,08,21,06,53,16.90
2011,08,21,06,54,16.90
2011,08,21,06,55,16.80
2011,08,21,06,56,16.80
2011,08,21,06,57,16.80
2011,08,21,06,58,16.80
2011,08,21,06,59,16.80
2011,08,21,07,00,16.80
2011,08,21,07,01,16.80
2011,08,21,07,02,16.80
2011,08,21,07,03,16.80
2011,08,21,07,04,16.80
2011,08,21,07,05,16.80
2011,08,21,07,06,16.90
2011,08,21,07,07,16.90
2011,08,21,07,08,16.90
2011,08,21,07,09,16.90
2011,08,21,07,10,16.90
2011,08,21,07,11,16.90
2011,08,21,07,12,16.90
2011,08,21,07,13,16.90
2011,08,21,07,14,16.90
2011,08,21,07,15,16.90
2011,08,21,07,16,16.90
2011,08,21,07,17,16.90
2011,08,21,07,18,17.00
2011,08,21,07,19,17.00
2011,08,21,07,20,17.00
2011,08,21,07,21,17.00
2011,08,21,07,22,17.00
2011,08,21,07,23,17.00
2011,08,21,07,24,17.10
2011,08,21,07,25,17.10
2011,08,21,07,26,17.10
2011,08,21,07,27,17.10
2011,08,21,07,28,17.10
2011,08,21,07,29,17.10
2011,08,21,07,30,17.10
2011,08,21,07,31,17.10
2011,08,21,07,32,17.10
2011,08,21,07,33,17.10
2011,08,21,07,34,17.10
2011,08,21,07,35,17.10
2011,08,21,07,36,17.00
2011,08,21,07,37,17.00
2011,08,21,07,38,17.00
2011,08,21,07,39,17.00
2011,08,21,07,40,16.90
2011,08,21,07,41,16.90
2011,08,21,07,42,16.90
2011,08,21,07,43,16.80
2011,08,21,07,44,16.80
2011,08,21,07,45,16.80
2011,08,21,07,46,16.70
2011,08,21,07,47,16.70
2011,08,21,07,48,16.70
2011,08,21,07,49,16.70
2011,08,21,07,50,16.70
2011,08,21,07,51,16.70
2011,08,21,07,52,16.70
2011,08,21,07,53,16.70
2011,08,21,07,54,16.70
2011,08,21,07,55,16.70
2011,08,21,07,56,16.70
2011,08,21,07,57,16.70
2011,08,21,07,58,16.70
2011,08,21,07,59,16.70
2011,08,21,08,00,16.70
2011,08,21,08,01,16.70
2011,08,21,08,02,16.70
2011,08,21,08,03,16.70
2011,08,21,08,04,16.70
2011,08,21,08,05,16.70
2011,08,21,08,06,16.70
2011,08,21,08,07,16.70
2011,08,21,08,08,16.70
2011,08,21,08,09,16.70
2011,08,21,08,10,16.70
2011,08,21,08,11,16.70
2011,08,21,08,12,16.70
2011,08,21,08,13,16.70
2011,08,21,08,14,16.70
2011,08,21,08,15,16.70
2011,08,21,08,16,16.80
2011,08,21,08,17,16.80
2011,08,21,08,18,16.80
2011,08,21,08,19,16.90
2011,08,21,08,20,16.90
2011,08,21,08,21,16.90
2011,08,21,08,22,17.00
2011,08,21,08,23,17.00
2011,08,21,08,24,17.00
2011,08,21,08,25,17.10
2011,08,21,08,26,17.10
2011,08,21,08,27,17.20
2011,08,21,08,28,17.20
2011,08,21,08,29,17.30
2011,08,21,08,30,17.30
2011,08,21,08,31,17.30
2011,08,21,08,32,17.30
2011,08,21,08,33,17.40
2011,08,21,08,34,17.50
2011,08,21,08,35,17.50
2011,08,21,08,36,17.60
2011,08,21,08,37,17.70
2011,08,21,08,38,17.70
2011,08,21,08,39,17.80
2011,08,21,08,40,17.90
2011,08,21,08,41,17.90
2011,08,21,08,42,18.00
2011,08,21,08,43,18.10
2011,08,21,08,44,18.20
2011,08,21,08,45,18.20
2011,08,21,08,46,18.30
2011,08,21,08,47,18.50
2011,08,21,08,48,18.50
2011,08,21,08,49,18.60
2011,08,21,08,50,18.70
2011,08,21,08,51,18.80
2011,08,21,08,52,18.90
2011,08,21,08,53,18.90
2011,08,21,08,54,18.90
2011,08,21,08,55,19.00
2011,08,21,08,56,19.10
2011,08,21,08,57,19.10
2011,08,21,08,58,19.10
2011,08,21,08,59,19.10
2011,08,21,09,00,19.10
2011,08,21,09,01,19.10
2011,08,21,09,02,19.10
2011,08,21,09,03,19.10
2011,08,21,09,04,19.20
2011,08,21,09,05,19.20
2011,08,21,09,06,19.20
2011,08,21,09,07,19.20
2011,08,21,09,08,19.20
2011,08,21,09,09,19.30
2011,08,21,09,10,19.30
2011,08,21,09,11,19.30
2011,08,21,09,12,19.30
2011,08,21,09,13,19.30
2011,08,21,09,14,19.30
2011,08,21,09,15,19.30
2011,08,21,09,16,19.30
2011,08,21,09,17,19.30
2011,08,21,09,18,19.30
2011,08,21,09,19,19.30
2011,08,21,09,20,19.30
2011,08,21,09,21,19.40
2011,08,21,09,22,19.40
2011,08,21,09,23,19.40
2011,08,21,09,24,19.50
2011,08,21,09,25,19.60
2011,08,21,09,26,19.60
2011,08,21,09,27,19.70
2011,08,21,09,28,19.70
2011,08,21,09,29,19.80
2011,08,21,09,30,19.80
2011,08,21,09,31,19.90
2011,08,21,09,32,19.90
2011,08,21,09,33,20.10
2011,08,21,09,34,20.10
2011,08,21,09,35,20.20
2011,08,21,09,36,20.20
2011,08,21,09,37,20.20
2011,08,21,09,38,20.20
2011,08,21,09,39,20.20
2011,08,21,09,40,20.20
2011,08,21,09,41,20.20
2011,08,21,09,42,20.30
2011,08,21,09,43,20.30
2011,08,21,09,44,20.30
2011,08,21,09,45,20.30
2011,08,21,09,46,20.30
2011,08,21,09,47,20.30
2011,08,21,09,48,20.40
2011,08,21,09,49,20.40
2011,08,21,09,50,20.40
2011,08,21,09,51,20.40
2011,08,21,09,52,20.50
2011,08,21,09,53,20.50
2011,08,21,09,54,20.70
2011,08,21,09,55,20.80
2011,08,21,09,56,20.90
2011,08,21,09,57,21.00
2011,08,21,09,58,21.10
2011,08,21,09,59,21.30
2011,08,21,10,00,21.40
2011,08,21,10,01,21.50
2011,08,21,10,02,21.60
2011,08,21,10,03,21.60
2011,08,21,10,04,21.60
2011,08,21,10,05,21.60
2011,08,21,10,06,21.60
2011,08,21,10,07,21.60
2011,08,21,10,08,21.60
2011,08,21,10,09,21.60
2011,08,21,10,10,21.60
2011,08,21,10,11,21.70
2011,08,21,10,12,21.70
2011,08,21,10,13,21.70
2011,08,21,10,14,21.80
2011,08,21,10,15,21.80
2011,08,21,10,16,21.80
2011,08,21,10,17,21.80
2011,08,21,10,18,21.80
2011,08,21,10,19,21.90
2011,08,21,10,20,21.90
2011,08,21,10,21,21.90
2011,08,21,10,22,21.90
2011,08,21,10,23,22.00
2011,08,21,10,24,22.00
2011,08,21,10,25,22.10
2011,08,21,10,26,22.10
2011,08,21,10,27,22.10
2011,08,21,10,28,22.20
2011,08,21,10,29,22.30
2011,08,21,10,30,22.30
2011,08,21,10,31,22.30
2011,08,21,10,32,22.30
2011,08,21,10,33,22.30
2011,08,21,10,34,22.20
2011,08,21,10,35,22.20
2011,08,21,10,36,22.10
2011,08,21,10,37,22.10
2011,08,21,10,38,22.00
2011,08,21,10,39,22.00
2011,08,21,10,40,22.00
2011,08,21,10,41,22.00
2011,08,21,10,42,22.10
2011,08,21,10,43,21.90
2011,08,21,10,44,21.70
2011,08,21,10,45,21.40
2011,08,21,10,46,21.20
2011,08,21,10,47,21.00
2011,08,21,10,48,20.80
2011,08,21,10,49,20.60
2011,08,21,10,50,20.50
2011,08,21,10,51,20.30
2011,08,21,10,52,20.20
2011,08,21,10,53,20.10
2011,08,21,10,54,19.90
2011,08,21,10,55,19.80
2011,08,21,10,56,19.60
2011,08,21,10,57,19.40
2011,08,21,10,58,19.30
2011,08,21,10,59,19.20
2011,08,21,11,00,19.20
2011,08,21,11,01,19.10
2011,08,21,11,02,19.10
2011,08,21,11,03,19.20
2011,08,21,11,04,19.10
2011,08,21,11,05,19.10
2011,08,21,11,06,19.20
2011,08,21,11,07,19.30
2011,08,21,11,08,19.40
2011,08,21,11,09,19.50
2011,08,21,11,10,19.50
2011,08,21,11,11,19.60
2011,08,21,11,12,19.70
2011,08,21,11,13,19.70
2011,08,21,11,14,19.60
2011,08,21,11,15,19.70
2011,08,21,11,16,19.70
2011,08,21,11,17,19.70
2011,08,21,11,18,19.70
2011,08,21,11,19,19.80
2011,08,21,11,20,19.70
2011,08,21,11,21,19.70
2011,08,21,11,22,19.70
2011,08,21,11,23,19.60
2011,08,21,11,24,19.60
2011,08,21,11,25,19.50
2011,08,21,11,26,19.50
2011,08,21,11,27,19.40
2011,08,21,11,28,19.20
2011,08,21,11,29,19.10
2011,08,21,11,30,19.10
2011,08,21,11,31,19.10
2011,08,21,11,32,19.00
2011,08,21,11,33,19.00
2011,08,21,11,34,19.10
2011,08,21,11,35,19.20
2011,08,21,11,36,19.30
2011,08,21,11,37,19.40
2011,08,21,11,38,19.60
2011,08,21,11,39,19.70
2011,08,21,11,40,19.90
2011,08,21,11,41,20.00
2011,08,21,11,42,20.20
2011,08,21,11,43,20.20
2011,08,21,11,44,20.20
2011,08,21,11,45,20.30
2011,08,21,11,46,20.40
2011,08,21,11,47,20.40
2011,08,21,11,48,20.50
2011,08,21,11,49,20.50
2011,08,21,11,50,20.60
2011,08,21,11,51,20.70
2011,08,21,11,52,20.70
2011,08,21,11,53,20.70
2011,08,21,11,54,20.80
2011,08,21,11,55,20.80
2011,08,21,11,56,20.90
2011,08,21,11,57,21.00
2011,08,21,11,58,21.10
2011,08,21,11,59,21.20
2011,08,21,12,00,21.30
2011,08,21,12,01,21.40
2011,08,21,12,02,21.50
2011,08,21,12,03,21.60
2011,08,21,12,04,21.80
2011,08,21,12,05,21.90
2011,08,21,12,06,22.00
2011,08,21,12,07,22.10
2011,08,21,12,08,22.20
2011,08,21,12,09,22.30
2011,08,21,12,10,22.50
2011,08,21,12,11,22.70
2011,08,21,12,12,22.80
2011,08,21,12,13,23.00
2011,08,21,12,14,23.20
2011,08,21,12,15,23.40
2011,08,21,12,16,23.50
2011,08,21,12,17,23.60
2011,08,21,12,18,23.70
2011,08,21,12,19,23.70
2011,08,21,12,20,23.70
2011,08,21,12,21,23.70
2011,08,21,12,22,23.70
2011,08,21,12,23,23.70
2011,08,21,12,24,23.70
2011,08,21,12,25,23.70
2011,08,21,12,26,23.70
2011,08,21,12,27,23.70
2011,08,21,12,28,23.80
2011,08,21,12,29,23.80
2011,08,21,12,30,23.80
2011,08,21,12,31,23.80
2011,08,21,12,32,23.80
2011,08,21,12,33,23.80
2011,08,21,12,34,23.80
2011,08,21,12,35,23.80
2011,08,21,12,36,23.90
2011,08,21,12,37,23.90
2011,08,21,12,38,24.00
2011,08,21,12,39,24.10
2011,08,21,12,40,24.10
2011,08,21,12,41,24.10
2011,08,21,12,42,24.10
2011,08,21,12,43,24.10
2011,08,21,12,44,24.20
2011,08,21,12,45,24.20
2011,08,21,12,46,24.30
2011,08,21,12,47,24.40
2011,08,21,12,48,24.50
2011,08,21,12,49,24.50
2011,08,21,12,50,24.60
2011,08,21,12,51,24.80
2011,08,21,12,52,24.80
2011,08,21,12,53,24.90
2011,08,21,12,54,24.90
2011,08,21,12,55,25.00
2011,08,21,12,56,25.20
2011,08,21,12,57,25.30
2011,08,21,12,58,25.30
2011,08,21,12,59,25.40
2011,08,21,13,00,25.50
2011,08,21,13,01,25.50
2011,08,21,13,02,25.50
2011,08,21,13,03,25.50
2011,08,21,13,04,25.50
2011,08,21,13,05,25.50
2011,08,21,13,06,25.50
2011,08,21,13,07,25.50
2011,08,21,13,08,25.50
2011,08,21,13,09,25.60
2011,08,21,13,10,25.60
2011,08,21,13,11,25.60
2011,08,21,13,12,25.50
2011,08,21,13,13,25.50
2011,08,21,13,14,25.40
2011,08,21,13,15,25.40
2011,08,21,13,16,25.40
2011,08,21,13,17,25.40
2011,08,21,13,18,25.40
2011,08,21,13,19,25.30
2011,08,21,13,20,25.30
2011,08,21,13,21,25.30
2011,08,21,13,22,25.30
2011,08,21,13,23,25.30
2011,08,21,13,24,25.40
2011,08,21,13,25,25.40
2011,08,21,13,26,25.40
2011,08,21,13,27,25.50
2011,08,21,13,28,25.60
2011,08,21,13,29,25.60
2011,08,21,13,30,25.60
2011,08,21,13,31,25.70
2011,08,21,13,32,25.70
2011,08,21,13,33,25.70
2011,08,21,13,34,25.70
2011,08,21,13,35,25.70
2011,08,21,13,36,25.70
2011,08,21,13,37,25.70
2011,08,21,13,38,25.70
2011,08,21,13,39,25.60
2011,08,21,13,40,25.60
2011,08,21,13,41,25.60
2011,08,21,13,42,25.60
2011,08,21,13,43,25.60
2011,08,21,13,44,25.60
2011,08,21,13,45,25.60
2011,08,21,13,46,25.60
2011,08,21,13,47,25.60
2011,08,21,13,48,25.60
2011,08,21,13,49,25.70
2011,08,21,13,50,25.80
2011,08,21,13,51,25.90
2011,08,21,13,52,26.00
2011,08,21,13,53,26.10
2011,08,21,13,54,26.20
2011,08,21,13,55,26.30
2011,08,21,13,56,26.40
2011,08,21,13,57,26.40
2011,08,21,13,58,26.40
2011,08,21,13,59,26.60
2011,08,21,14,00,26.60
2011,08,21,14,01,26.50
2011,08,21,14,02,26.40
2011,08,21,14,03,26.30
2011,08,21,14,04,26.10
2011,08,21,14,05,26.00
2011,08,21,14,06,25.90
2011,08,21,14,07,25.70
2011,08,21,14,08,25.50
2011,08,21,14,09,25.40
2011,08,21,14,10,25.40
2011,08,21,14,11,25.30
2011,08,21,14,12,25.10
2011,08,21,14,13,24.90
2011,08,21,14,14,24.80
2011,08,21,14,15,24.70
2011,08,21,14,16,24.70
2011,08,21,14,17,24.60
2011,08,21,14,18,24.60
2011,08,21,14,19,24.50
2011,08,21,14,20,24.40
2011,08,21,14,21,24.30
2011,08,21,14,22,24.10
2011,08,21,14,23,24.00
2011,08,21,14,24,23.90
2011,08,21,14,25,23.80
2011,08,21,14,26,23.70
2011,08,21,14,27,23.70
2011,08,21,14,28,23.70
2011,08,21,14,29,23.70
2011,08,21,14,30,23.60
2011,08,21,14,31,23.60
2011,08,21,14,32,23.50
2011,08,21,14,33,23.40
2011,08,21,14,34,23.30
2011,08,21,14,35,23.30
2011,08,21,14,36,23.30
2011,08,21,14,37,23.20
2011,08,21,14,38,23.20
2011,08,21,14,39,23.10
2011,08,21,14,40,23.10
2011,08,21,14,41,23.10
2011,08,21,14,42,23.00
2011,08,21,14,43,22.90
2011,08,21,14,44,22.90
2011,08,21,14,45,22.90
2011,08,21,14,46,22.90
2011,08,21,14,47,22.90
2011,08,21,14,48,23.00
2011,08,21,14,49,23.10
2011,08,21,14,50,23.10
2011,08,21,14,51,23.10
2011,08,21,14,52,23.20
2011,08,21,14,53,23.30
2011,08,21,14,54,23.30
2011,08,21,14,55,23.30
2011,08,21,14,56,23.40
2011,08,21,14,57,23.40
2011,08,21,14,58,23.40
2011,08,21,14,59,23.40
2011,08,21,15,00,23.30
2011,08,21,15,01,23.40
2011,08,21,15,02,23.40
2011,08,21,15,03,23.40
2011,08,21,15,04,23.60
2011,08,21,15,05,23.60
2011,08,21,15,06,23.70
2011,08,21,15,07,23.70
2011,08,21,15,08,23.70
2011,08,21,15,09,23.70
2011,08,21,15,10,23.70
2011,08,21,15,11,23.70
2011,08,21,15,12,23.70
2011,08,21,15,13,23.70
2011,08,21,15,14,23.70
2011,08,21,15,15,23.70
2011,08,21,15,16,23.60
2011,08,21,15,17,23.60
2011,08,21,15,18,23.50
2011,08,21,15,19,23.40
2011,08,21,15,20,23.40
2011,08,21,15,21,23.30
2011,08,21,15,22,23.30
2011,08,21,15,23,23.30
2011,08,21,15,24,23.30
2011,08,21,15,25,23.30
2011,08,21,15,26,23.30
2011,08,21,15,27,23.30
2011,08,21,15,28,23.20
2011,08,21,15,29,23.20
2011,08,21,15,30,23.20
2011,08,21,15,31,23.10
2011,08,21,15,32,23.10
2011,08,21,15,33,23.10
2011,08,21,15,34,23.20
2011,08,21,15,35,23.30
2011,08,21,15,36,23.20
2011,08,21,15,37,23.30
2011,08,21,15,38,23.30
2011,08,21,15,39,23.30
2011,08,21,15,40,23.20
2011,08,21,15,41,23.20
2011,08,21,15,42,23.20
2011,08,21,15,43,23.20
2011,08,21,15,44,23.10
2011,08,21,15,45,23.10
2011,08,21,15,46,23.00
2011,08,21,15,47,22.90
2011,08,21,15,48,22.90
2011,08,21,15,49,22.90
2011,08,21,15,50,22.90
2011,08,21,15,51,22.80
2011,08,21,15,52,22.80
2011,08,21,15,53,22.70
2011,08,21,15,54,22.70
2011,08,21,15,55,22.60
2011,08,21,15,56,22.60
2011,08,21,15,57,22.50
2011,08,21,15,58,22.40
2011,08,21,15,59,22.30
2011,08,21,16,00,22.30
2011,08,21,16,01,22.20
2011,08,21,16,02,22.20
2011,08,21,16,03,22.20
2011,08,21,16,04,22.20
2011,08,21,16,05,22.30
2011,08,21,16,06,22.30
2011,08,21,16,07,22.30
2011,08,21,16,08,22.40
2011,08,21,16,09,22.50
2011,08,21,16,10,22.50
2011,08,21,16,11,22.50
2011,08,21,16,12,22.60
2011,08,21,16,13,22.60
2011,08,21,16,14,22.70
2011,08,21,16,15,22.70
2011,08,21,16,16,22.80
2011,08,21,16,17,22.80
2011,08,21,16,18,22.90
2011,08,21,16,19,22.90
2011,08,21,16,20,22.90
2011,08,21,16,21,22.90
2011,08,21,16,22,22.80
2011,08,21,16,23,22.70
2011,08,21,16,24,22.60
2011,08,21,16,25,22.60
2011,08,21,16,26,22.60
2011,08,21,16,27,22.60
2011,08,21,16,28,22.60
2011,08,21,16,29,22.50
2011,08,21,16,30,22.60
2011,08,21,16,31,22.60
2011,08,21,16,32,22.60
2011,08,21,16,33,22.60
2011,08,21,16,34,22.70
2011,08,21,16,35,22.70
2011,08,21,16,36,22.80
2011,08,21,16,37,22.80
2011,08,21,16,38,22.90
2011,08,21,16,39,22.90
2011,08,21,16,40,23.00
2011,08,21,16,41,23.10
2011,08,21,16,42,23.10
2011,08,21,16,43,23.20
2011,08,21,16,44,23.30
2011,08,21,16,45,23.30
2011,08,21,16,46,23.40
2011,08,21,16,47,23.40
2011,08,21,16,48,23.60
2011,08,21,16,49,23.60
2011,08,21,16,50,23.70
2011,08,21,16,51,23.70
2011,08,21,16,52,23.70
2011,08,21,16,53,23.80
2011,08,21,16,54,23.90
2011,08,21,16,55,23.90
2011,08,21,16,56,24.10
2011,08,21,16,57,24.10
2011,08,21,16,58,24.10
2011,08,21,16,59,24.20
2011,08,21,17,00,24.30
2011,08,21,17,01,24.30
2011,08,21,17,02,24.30
2011,08,21,17,03,24.40
2011,08,21,17,04,24.40
2011,08,21,17,05,24.50
2011,08,21,17,06,24.50
2011,08,21,17,07,24.50
2011,08,21,17,08,24.50
2011,08,21,17,09,24.40
2011,08,21,17,10,24.40
2011,08,21,17,11,24.30
2011,08,21,17,12,24.20
2011,08,21,17,13,24.20
2011,08,21,17,14,24.10
2011,08,21,17,15,24.10
2011,08,21,17,16,24.10
2011,08,21,17,17,24.00
2011,08,21,17,18,23.90
2011,08,21,17,19,23.90